Decatur, AL

1:24 AM CDT on July 23, 2017 (GMT -0500)
Pryor Regional

Weather History for KDCU - May, 2013

Change the Weather History Date:

Sunday, May 19, 2013

  Actual Average Record
Temperature  
Mean Temperature 75 °F -  
Max Temperature 82 °F 82 °F 99 °F (1962)
Min Temperature 64 °F 58 °F 42 °F (2002)
Cooling Degree Days 10    
Growing Degree Days 25 (Base 50)    
Moisture  
Dew Point 69 °F    
Average Humidity 87    
Maximum Humidity 100    
Minimum Humidity 69    
Precipitation  
Precipitation 0.01 in - - ()
Sea Level Pressure  
Sea Level Pressure 30.00 in    
Wind  
Wind Speed 5 mph (South)    
Max Wind Speed 14 mph    
Max Gust Speed 18 mph    
Visibility 5 miles    
Events Rain , Thunderstorm    
Averages and records for this station are not official NWS values.
T = Trace of Precipitation, MM = Missing Value Source: NWS Daily Summary

Daily Weather History Graph

Daily Weather History Graph

Search for Another Location

Airport or City:

Trip Planner

Search our weather history database for the weather conditions in past years. The results will help you decide how hot, cold, wet, or windy it might be!

Date:

Astronomy

May. 19, 2013 Rise Set
Actual Time 5:42 AM CDT 7:46 PM CDT
Civil Twilight 5:13 AM CDT 8:15 PM CDT
Nautical Twilight 4:39 AM CDT 8:49 PM CDT
Astronomical Twilight 4:02 AM CDT 9:26 PM CDT
Moon 2:04 PM CDT (5/19) 1:50 AM CDT (5/19)
Length of Visible Light 15h 01m
Length of Day
14h 04m
Waxing Gibbous, 65% of the Moon is Illuminated
May 19
Waxing Gibbous
May 24
Full
May 31
Last Quarter
Jun 8
New
Jun 16
First Quarter

Hourly Weather History & Observations

Time (CDT) Temp. Heat Index Dew Point Humidity Pressure Visibility Wind Dir Wind Speed Gust Speed Precip Events Conditions
12:53 AM 70.0 °F - 69.1 °F 97% 29.98 in 4.0 mi ESE 4.6 mph - N/A   Scattered Clouds
1:53 AM 70.0 °F - 69.1 °F 97% 29.96 in 4.0 mi SE 3.5 mph - N/A   Partly Cloudy
2:05 AM 71.6 °F - 69.8 °F 94% 29.99 in 4.0 mi ESE 4.6 mph - 0.00 in Rain , Thunderstorm Light Rain
2:46 AM 69.8 °F - 69.8 °F 100% 29.98 in 3.0 mi Calm Calm - 0.01 in   Mostly Cloudy
2:53 AM 70.0 °F - 69.1 °F 97% 29.97 in 3.0 mi Calm Calm - 0.01 in   Mostly Cloudy
3:47 AM 68.0 °F - 66.2 °F 94% 29.98 in 1.8 mi Calm Calm - N/A   Clear
3:53 AM 68.0 °F - 66.9 °F 96% 29.97 in 1.0 mi Calm Calm - N/A   Clear
4:09 AM 69.8 °F - 68.0 °F 94% 29.99 in 2.5 mi Calm Calm - N/A   Partly Cloudy
4:16 AM 69.8 °F - 68.0 °F 94% 29.99 in 3.0 mi Calm Calm - N/A   Partly Cloudy
4:26 AM 69.8 °F - 68.0 °F 94% 29.99 in 2.5 mi ESE 3.5 mph - N/A   Scattered Clouds
4:33 AM 69.8 °F - 68.0 °F 94% 29.99 in 3.0 mi SE 3.5 mph - N/A   Partly Cloudy
4:53 AM 68.0 °F - 66.9 °F 96% 29.98 in 2.5 mi South 3.5 mph - N/A   Scattered Clouds
5:24 AM 69.8 °F - 68.0 °F 94% 30.00 in 3.0 mi South 4.6 mph - N/A   Mostly Cloudy
5:53 AM 71.1 °F - 69.1 °F 93% 29.97 in 3.0 mi South 3.5 mph - N/A   Partly Cloudy
6:09 AM 71.6 °F - 69.8 °F 94% 30.00 in 2.5 mi South 3.5 mph - N/A   Partly Cloudy
7:37 AM 73.4 °F - 71.6 °F 94% 30.02 in 3.0 mi SSW 4.6 mph - N/A   Mostly Cloudy
7:53 AM 73.9 °F - 71.1 °F 91% 30.01 in 4.0 mi SSW 5.8 mph - N/A   Mostly Cloudy
8:18 AM 75.2 °F - 71.6 °F 89% 30.03 in 5.0 mi SW 6.9 mph - N/A   Haze
8:53 AM 77.0 °F - 71.1 °F 82% 30.02 in 6.0 mi WSW 6.9 mph - N/A   Haze
9:10 AM 75.2 °F - 71.6 °F 89% 30.03 in 6.0 mi SW 9.2 mph - N/A   Haze
9:53 AM 78.1 °F - 71.1 °F 79% 30.01 in 6.0 mi SW 9.2 mph - N/A   Haze
10:53 AM 78.1 °F - 71.1 °F 79% 30.04 in 6.0 mi South 4.6 mph - N/A   Haze
11:42 AM 78.8 °F - 71.6 °F 78% 30.05 in 6.0 mi SSW 10.4 mph - N/A   Haze
11:53 AM 79.0 °F - 72.0 °F 79% 30.03 in 7.0 mi SSW 11.5 mph - N/A   Clear
12:53 PM 81.0 °F 86.2 °F 73.9 °F 79% 30.01 in 6.0 mi SSW 11.5 mph - N/A   Haze
2:53 PM 80.1 °F 83.6 °F 71.1 °F 74% 29.98 in 8.0 mi South 12.7 mph - N/A   Mostly Cloudy
3:53 PM 82.0 °F 86.3 °F 71.1 °F 69% 29.98 in 8.0 mi South 9.2 mph - N/A   Scattered Clouds
4:53 PM 80.1 °F 83.6 °F 71.1 °F 74% 29.99 in 8.0 mi South 6.9 mph - N/A   Partly Cloudy
5:53 PM 81.0 °F 84.4 °F 70.0 °F 69% 29.99 in 7.0 mi SSE 8.1 mph - N/A   Clear
6:53 PM 75.0 °F - 66.0 °F 73% 30.02 in 9.0 mi ESE 12.7 mph 18.4 mph N/A   Scattered Clouds
7:53 PM 72.0 °F - 64.0 °F 76% 30.03 in 10.0 mi SSE 13.8 mph - N/A   Scattered Clouds
8:53 PM 70.0 °F - 63.0 °F 78% 29.98 in 10.0 mi SSW 13.8 mph - N/A   Clear
9:53 PM 70.0 °F - 62.1 °F 76% 29.98 in 10.0 mi South 9.2 mph - N/A   Clear
11:53 PM 64.9 °F - 62.1 °F 90% 29.99 in 10.0 mi Calm Calm - N/A   Clear